Regional Weather Roundup
Issued by NWS Memphis, TN

Home | Current Version | Previous Version | Text Only | Print | Product List | Glossary On
Versions: 1 2 3 4 5 6 7 8 9 10 11 12 13 14 15 16 17 18 19 20 21 22 23 24 25 26 27 28 29 30 31 32 33 34 35 36 37 38 39 40 41 42 43 44 45 46 47 48 49 50
000
ASUS44 KMEG 121610
RWRMEG
MEMPHIS CWA HOURLY WEATHER ROUNDUP
NATIONAL WEATHER SERVICE MEMPHIS TN
1100 AM CDT MON APR 12 2021

...WEST TENNESSEE...

CITY           SKY/WX    TMP DP  RH WIND       PRES   REMARKS
MEMPHIS INTL   SUNNY     74  51  44 W3        29.90R
NWS MEMPHIS      N/A     72 N/A N/A MISG        N/A
JACKSON        SUNNY     70  47  43 N5        29.91R
COVINGTON      SUNNY     70  48  46 CALM      29.90R
SOMERVILLE     SUNNY     73  48  40 N5        29.89S
LEXINGTON      SUNNY     70  45  40 NE6       29.90R
SELMER         SUNNY     72  48  43 CALM      29.90R
DYERSBURG        N/A     72  46  39 CALM      29.91R
UNION CITY     SUNNY     70  43  37 NE10      29.89R
PARIS          SUNNY     70  41  35 N6G12     29.90R
HUNTINGDON     SUNNY     72  45  37 NE5       29.89R


...EASTERN ARKANSAS...

CITY           SKY/WX    TMP DP  RH WIND       PRES   REMARKS
JONESBORO      SUNNY     70  49  47 NE9       29.91R
WEST MEMPHIS   SUNNY     74  48  39 VRB3      29.88R
BATESVILLE     SUNNY     73  42  32 E9        29.92R
NEWPORT        SUNNY     69  49  48 NE7       29.92R
WALNUT RIDGE   SUNNY     71  48  43 NE9       29.92R
BLYTHEVILLE    SUNNY     72  45  37 E8        29.90R
NW BLYTHEVILLE SUNNY     72  45  37 NE8       29.91R
SEARCY         SUNNY     73  48  41 CALM      29.91R
STUTTGART      SUNNY     73  48  41 W7        29.92R
PINE BLUFF     SUNNY     76  49  38 W9        29.90R
MONTICELLO     SUNNY     76  51  41 VRB3      29.90R


...NORTH MISSISSIPPI...

CITY           SKY/WX    TMP DP  RH WIND       PRES   REMARKS
TUPELO         SUNNY     76  48  37 W6        29.91R
OXFORD         SUNNY     72  48  43 NW9       29.93S
BATESVILLE     SUNNY     73  50  43 VRB3      29.91S
OLIVE BRANCH   SUNNY     73  50  43 W6        29.89S
TUNICA         SUNNY     72  50  46 W7        29.92R
CLARKSDALE       N/A     70  54  56 CALM      29.92R
CORINTH        SUNNY     73  50  43 N9        29.89S
GREENWOOD      SUNNY     76  54  46 CALM      29.91R
COLUMBUS       SUNNY     75  48  38 NW3       29.91R
STARKVILLE     SUNNY     73  50  43 CALM      29.93R
GOLDEN TRIANGL SUNNY     76  49  38 VRB3      29.92R


...SOUTHEAST MISSOURI...

CITY           SKY/WX    TMP DP  RH WIND       PRES   REMARKS
KENNETT        SUNNY     70  46  43 NE6       29.91R
MALDEN         SUNNY     72  37  28 NE6       29.93R
WEST PLAINS    SUNNY     66  45  46 N9        29.95R
POPLAR BLUFF   SUNNY     68  42  38 E7        29.92R
CAPE GIRARDEAU SUNNY     67  45  45 CALM      29.92R


...NORTHWEST ALABAMA...

CITY           SKY/WX    TMP DP  RH WIND       PRES   REMARKS
MUSCLE SHOALS  SUNNY     72  50  45 NW9       29.90R


...MIDDLE TENNESSEE...

CITY           SKY/WX    TMP DP  RH WIND       PRES   REMARKS
NASHVILLE      SUNNY     70  44  39 NW3       29.90R
CLARKSVILLE    SUNNY     68  43  40 N10       29.89R
DICKSON          N/A     68  41  37 N8        29.89R
COLUMBIA       SUNNY     68  46  45 N5        29.88R
LAWRENCEBURG   SUNNY     70  48  46 W6        29.89R
LEWISBURG      SUNNY     68  48  49 VRB7      29.89R


...WESTERN KENTUCKY...

CITY           SKY/WX    TMP DP  RH WIND       PRES   REMARKS
PADUCAH        SUNNY     69  40  34 N7        29.90R
FORT CAMPBELL  SUNNY     66  44  44 W6        29.89R


...CENTRAL ARKANSAS...

CITY           SKY/WX    TMP DP  RH WIND       PRES   REMARKS
LITTLE ROCK    MOSUNNY   76  48  37 SW8       29.89R


SKY/WX REPORTED AS FAIR MEANS FEW OR NO CLOUDS BELOW
12 THOUSAND FEET.




USA.gov is the U.S. government's official web portal to all federal, state and local government web resources and services.